Jamaica, NY

6:43 AM EST on February 07, 2016 (GMT -0500)
Kennedy International

Weather History for KJFK - October, 2013

Change the Weather History Date:

Wednesday, October 23, 2013

  Actual Average Record
Temperature  
Mean Temperature 50 °F 55 °F  
Max Temperature 55 °F 62 °F 77 °F (1978)
Min Temperature 45 °F 47 °F 33 °F (1969)
Degree Days  
Heating Degree Days 15 10  
Month to date heating degree days 78 166  
Since 1 July heating degree days 123 205  
Cooling Degree Days 0 0  
Month to date cooling degree days 39 12  
Year to date cooling degree days 1111 1003  
Moisture  
Dew Point 35 °F    
Average Humidity 57    
Maximum Humidity 76    
Minimum Humidity 38    
Precipitation  
Precipitation T in 0.11 in 1.55 in (1990)
Month to date precipitation 0.28 2.74  
Year to date precipitation 28.39 35.20  
Snow  
Snow 0.00 in 0.00 in - ()
Month to date snowfall 0.0 0.0  
Since 1 July snowfall 0.0 0.0  
Snow Depth 0.00 in    
Sea Level Pressure  
Sea Level Pressure 29.74 in    
Wind  
Wind Speed 8 mph (NNE)    
Max Wind Speed 18 mph    
Max Gust Speed 23 mph    
Visibility 10 miles    
Events Rain    
T = Trace of Precipitation, MM = Missing Value Source: NWS Daily Summary

Daily Weather History Graph

Daily Weather History Graph

Search for Another Location

Airport or City:

Trip Planner

Search our weather history database for the weather conditions in past years. The results will help you decide how hot, cold, wet, or windy it might be!

Date:

Astronomy

Oct. 23, 2013 Rise Set
Actual Time 7:15 AM EDT 6:02 PM EDT
Civil Twilight 6:47 AM EDT 6:30 PM EDT
Nautical Twilight 6:15 AM EDT 7:02 PM EDT
Astronomical Twilight 5:43 AM EDT 7:34 PM EDT
Moon 9:31 PM EDT (10/23) 11:30 AM EDT (10/23)
Length of Visible Light 11h 43m
Length of Day
10h 47m
Waning Gibbous, 79% of the Moon is Illuminated
Oct 23
Waning Gibbous
Oct 26
Last Quarter
Nov 3
New
Nov 10
First Quarter
Nov 17
Full

Hourly Weather History & Observations

Time (EDT) Temp. Windchill Dew Point Humidity Pressure Visibility Wind Dir Wind Speed Gust Speed Precip Events Conditions
12:51 AM 51.1 °F - 39.9 °F 66% 29.83 in 10.0 mi NNW 8.1 mph - N/A   Partly Cloudy
1:51 AM 46.9 °F - 37.9 °F 71% 29.82 in 10.0 mi NNE 4.6 mph - N/A   Partly Cloudy
2:51 AM 46.0 °F 43.9 °F 39.0 °F 76% 29.81 in 10.0 mi NNE 4.6 mph - N/A   Partly Cloudy
3:51 AM 45.0 °F 43.5 °F 37.9 °F 76% 29.79 in 10.0 mi NE 3.5 mph - N/A   Scattered Clouds
4:51 AM 48.0 °F - 39.9 °F 74% 29.79 in 10.0 mi North 3.5 mph - N/A   Mostly Cloudy
5:51 AM 48.9 °F - 39.9 °F 71% 29.78 in 10.0 mi NE 3.5 mph - N/A   Mostly Cloudy
6:51 AM 48.9 °F - 39.0 °F 69% 29.77 in 10.0 mi ENE 4.6 mph - N/A   Mostly Cloudy
7:51 AM 48.9 °F - 39.0 °F 69% 29.78 in 10.0 mi NE 4.6 mph - N/A   Overcast
8:51 AM 51.1 °F - 37.9 °F 61% 29.78 in 10.0 mi ENE 5.8 mph - N/A   Overcast
9:51 AM 52.0 °F - 34.0 °F 50% 29.76 in 10.0 mi ENE 9.2 mph - N/A   Overcast
10:51 AM 53.1 °F - 34.0 °F 48% 29.75 in 10.0 mi NE 9.2 mph - N/A   Overcast
11:51 AM 52.0 °F - 36.0 °F 54% 29.71 in 10.0 mi ENE 10.4 mph - 0.00 in Rain Light Rain
12:51 PM 53.1 °F - 33.1 °F 47% 29.67 in 10.0 mi NNE 12.7 mph 20.7 mph 0.00 in   Mostly Cloudy
1:51 PM 52.0 °F - 32.0 °F 47% 29.65 in 10.0 mi NNE 11.5 mph - N/A   Mostly Cloudy
2:51 PM 52.0 °F - 30.9 °F 45% 29.64 in 10.0 mi NE 9.2 mph - N/A   Mostly Cloudy
3:51 PM 53.1 °F - 30.9 °F 43% 29.64 in 10.0 mi North 6.9 mph - N/A   Mostly Cloudy
4:51 PM 55.0 °F - 30.9 °F 40% 29.63 in 10.0 mi NE 8.1 mph - N/A   Mostly Cloudy
5:51 PM 53.1 °F - 30.9 °F 43% 29.65 in 10.0 mi North 4.6 mph - N/A   Mostly Cloudy
6:51 PM 52.0 °F - 32.0 °F 47% 29.69 in 10.0 mi NW 11.5 mph 20.7 mph N/A   Overcast
7:51 PM 50.0 °F - 35.1 °F 57% 29.70 in 10.0 mi West 13.8 mph - 0.00 in Rain Light Rain
8:51 PM 51.1 °F - 35.1 °F 54% 29.72 in 10.0 mi NW 13.8 mph - 0.00 in   Overcast
9:51 PM 50.0 °F - 33.1 °F 52% 29.74 in 10.0 mi NW 11.5 mph - 0.00 in   Overcast
10:51 PM 48.0 °F - 34.0 °F 58% 29.76 in 10.0 mi NW 13.8 mph - N/A   Mostly Cloudy
11:51 PM 46.9 °F - 34.0 °F 61% 29.77 in 10.0 mi WNW 11.5 mph - N/A   Scattered Clouds